Other Public Products
Issued by NWS Grand Forks, ND

Home | Current Version | Previous Version | Text Only | Print | Product List | Glossary On
Versions: 1 2 3 4 5 6 7 8 9 10 11 12 13 14 15 16 17 18 19 20 21 22 23 24 25 26 27 28 29 30 31 32 33 34 35 36 37 38 39 40 41 42 43 44 45 46 47 48 49 50
000
FPUS83 KFGF 141931
OPUFGF
PRAIRIE TO PINES WEATHER ROUNDUP
NATIONAL WEATHER SERVICE EASTERN NORTH DAKOTA/GRAND FORKS ND
100 PM CST SUN FEB 14 2016

 **SATELLITE DATA USED TO AUGMENT SKY COVER AT AUTOMATED STATIONS**
 *****  WEATHER ACROSS EASTERN NORTH DAKOTA  *****

CITY           SKY/WX    TMP DP  RH WIND       PRES   REMARKS
GRAND FORKS    LGT SNOW  17  13  84 S18       29.75F VSB 1   WCI   1
GRAND FORKS AF CLOUDY    17  12  82 S15       29.73F HAZE    WCI   2
GRAND CITY NWS NOT AVBL
BUXTON           N/A     16  16  99 S14G25      N/A  WCI   2
DEVILS LAKE    CLOUDY    21  17  84 W12       29.68F WCI   9
FARGO          LGT SNOW  17  12  80 S20       29.79F WCI   1
WAHPETON ARPT  CLOUDY    18  12  79 S16       29.81S WCI   3
$$

 *****  WEATHER ACROSS CENTRAL AND WESTERN NORTH DAKOTA  *****

CITY           SKY/WX    TMP DP  RH WIND       PRES   REMARKS
JAMESTOWN      CLOUDY    27  22  81 NW10      29.69F WCI  17
BISMARCK       CLOUDY    40  29  64 NW3       29.72F
MINOT          CLOUDY    34  26  72 W14       29.68S WCI  25
MINOT AFB      CLOUDY    32  32 100 NW12      29.68R WCI  23
GARRISON         N/A     35  28  75 NW10      29.69F
WILLISTON      PTSUNNY   34  27  75 SW7       29.72S
DICKINSON      PTSUNNY   37  28  70 W17       29.69F
HETTINGER      CLOUDY    39  31  72 W20G25    29.74S
$$

 *****  OTHER OBSERVATIONS NORTHEAST NORTH DAKOTA  *****

CITY           SKY/WX    TMP DP  RH WIND       PRES   REMARKS
WALHALLA         N/A     18  18 100 S8        29.71S WCI   7
LANGDON        CLOUDY    21  16  79 W12       29.66S WCI   9
CAVALIER       CLOUDY    18  14  86 S13       29.72F WCI   4
GRAFTON        CLOUDY    16  14  93 S14G21    29.76F FOG     WCI   1
CANDO          CLOUDY    19  18  93 NW9       29.70S WCI   9
FORT TOTTEN      N/A     23  18  81 NW7       29.95S WCI  15
ROLLA          CLOUDY    23  19  86 CALM      29.65S
RUGBY          MOCLDY    23  23 100 NW10      29.68S WCI  12
 ***** THE ABOVE OBSERVATIONS ARE NON NWS ARE NOT QUALITY
        CONTROLLED AND MAY MIS-REPORT RAIN FOR SNOW...
$$

 *****  OTHER OBSERVATIONS SOUTHEAST NORTH DAKOTA *****

CITY           SKY/WX    TMP DP  RH WIND       PRES   REMARKS
COOPERSTOWN    NOT AVBL
VALLEY CITY    CLOUDY    18  18 100 S15       29.73F WCI   3
OAKES          CLOUDY    19  18  93 SW16      29.75S WCI   5
GWINNER        CLOUDY    21  19  93 S16       29.76F WCI   7
SHEYENNE NWR     N/A     17  12  79 S13       29.95S WCI   4
BUFFALO          N/A     17  14  86 S13         N/A  WCI   4
WYNDMERE         N/A     18  14  86 S15         N/A  WCI   3
 ***** THE ABOVE OBSERVATIONS ARE NON NWS ARE NOT QUALITY
       CONTROLLED AND MAY MIS-REPORT RAIN FOR SNOW...
$$

  *****  WEATHER ACROSS NORTHERN MINNESOTA  *****

CITY           SKY/WX    TMP DP  RH WIND       PRES   REMARKS
FLAG ISLAND    LGT SNOW  12   9  85 S18       29.78F VSB 3/4 WCI  -5
WARROAD        LGT SNOW  14  10  85 S9        29.78F VSB 3/4 WCI   2
ROSEAU         LGT SNOW  16  10  79 S15G21    29.77F WCI   1
HALLOCK        LGT SNOW  18  14  86 S23       29.74F VSB 1   WCI   0
THF RVR FALLS  CLOUDY    16  10  79 S20G26    29.77F VSB 1   WCI  -1
HALSTAD          N/A     16  14  91 S23         N/A  WCI  -2
FOSSTON        CLOUDY    16   9  73 S18G24    29.77F HAZE    WCI  -1
BAUDETTE       LGT SNOW  12   6  77 S14       29.79F WCI  -3
WASKISH        LGT SNOW  14   9  79 SE8       29.81F WCI   3
CROOKSTON      LGT SNOW  16  12  86 S20G31    29.78F WCI  -1
$$
  *****  WEATHER ACROSS CENTRAL AND WEST MINNESOTA  *****

CITY           SKY/WX    TMP DP  RH WIND       PRES   REMARKS
BEMIDJI        LGT SNOW  13   8  80 S14       29.79F WCI  -2
PARK RAPIDS    LGT SNOW  14   9  80 S15       29.80F VSB 3/4 WCI  -1
WADENA         LGT SNOW  14   9  79 S14       29.81F WCI  -1
DETROIT LAKES  LGT SNOW  18  12  79 S13       29.79F WCI   4
MOORHEAD       MIX PCPN  16  12  86 S17       29.80F WCI   0
FERGUS FALLS   LGT SNOW  16  12  86 S18       29.84F WCI  -1
ELBOW LAKE     CLOUDY    16  13  86 S18       29.82F FOG     WCI   0
MORRIS MN      CLOUDY    19  14  79 S18       29.81F HAZE    WCI   4
STAPLES        LGT SNOW  16   9  73 S15       29.83F WCI   1
WHEATON        FAIR      19  14  79 S15       29.84R WCI   5
$$
  *****  WEATHER ELSEWHERE ACROSS MINNESOTA  *****

CITY           SKY/WX    TMP DP  RH WIND       PRES   REMARKS
DULUTH         LGT SNOW  11   6  81 S10       29.93F WCI  -3
INTRNTL FALLS  SNOW      13   4  67 S7        29.84F VSB 1/2 WCI   3
ELY            FLURRIES  16   7  67 S13G21    29.90F WCI   2
CLOQUET        LGT SNOW  12   7  79 SE8       29.93F WCI   1
BRAINERD       LGT SNOW  14   7  73 S13       29.87F WCI   0
HIBBING        LGT SNOW  10   4  76 SE15      29.88F WCI  -7
ALEXANDRIA     LGT SNOW  16  11  80 S17       29.81F WCI   0
SAINT CLOUD    CLOUDY    17   9  70 SE18      29.90F WCI   1
MINNEAPOLIS    LGT SNOW  18  10  71 SE14G29   29.97F WCI   4
$$

  *****  WEATHER ACROSS SOUTH DAKOTA  *****

CITY           SKY/WX    TMP DP  RH WIND       PRES   REMARKS
SIOUX FALLS    CLOUDY    20  14  77 S6        29.81F WCI  12
BROOKINGS      FLURRIES  20  14  77 S12       29.78F WCI   8
WATERTOWN      CLOUDY    18  12  77 S10       29.76F WCI   6
HURON          CLOUDY    22  17  81 S6        29.80F WCI  14
SISSETON         N/A     18  13  80 S14       29.79F WCI   4
ABERDEEN       CLOUDY    23  17  78 S13       29.77F WCI  11
MITCHELL       CLOUDY    23  19  85 SW8       29.82F WCI  14
PIERRE         PTSUNNY   38  31  76 W9        29.76F
MOBRIDGE       CLOUDY    37  30  75 W8        29.72S
RAPID CITY     CLOUDY    43  25  49 N14       29.79S
$$

  *****  SOME WEATHER IN NEARBY STATES *****

CITY           SKY/WX    TMP DP  RH WIND       PRES   REMARKS
GLASGOW MT     PTSUNNY   41  30  65 W6        29.71S
GREAT FALLS MT SUNNY     49  21  33 W30G40    29.85R
CHEYENNE WY    CLOUDY    45  22  40 W25G36    29.89F
SCOTTSBLUFF NE PTSUNNY   53  22  29 NW24G37   29.82F
OMAHA NE       CLOUDY    36  25  64 NW10      29.81F
DES MOINES IA  CLOUDY    23  16  74 SE12      29.90F WCI  12
DAVENPORT IA   LGT SNOW  19  14  81 SE22      30.02F VSB 1   WCI   2
CHICAGO IL     LGT SNOW  16  12  84 SE13      30.17F VSB 1   WCI   2
EAU CLAIRE WI  LGT SNOW  15   7  70 SE14      30.03F WCI   0
LA CROSSE WI   CLOUDY    19  11  70 SE16      30.05F WCI   4
$$

  *****  SOME NATIONAL WEATHER *****

CITY           SKY/WX    TMP DP  RH WIND       PRES   REMARKS
LA GUARDIA NY  SUNNY     13 -13  30 NW14      30.50F WCI  -2
RALEIGH NC     CLOUDY    31   0  26 SW7       30.47F WCI  24
ATLANTA GA     PTSUNNY   45  13  27 SE12      30.25F
NEW ORLEANS LA PTSUNNY   68  48  48 S18G28    30.14F
OKLAHOMA CITY  CLOUDY    53  36  52 N12       29.93F
ALBUQUERQUE NM PTSUNNY   57  16  20 CALM      30.09F
SALT LAKE CITY LGT RAIN  35  33  92 SE7       30.25F FOG
LOS ANGELES CA MOSUNNY   65  52  62 CALM      30.06S HAZE
BOISE ID       CLOUDY    45  40  82 N3        30.27R
SEATTLE WA     CLOUDY    52  48  87 S12       30.13S
$$

*** WEATHER ACROSS MANITOBA...SASKATCHEWAN AND ONTARIO ***
                ***ONTARIO***

CITY           SKY/WX    TMP DP  RH WIND       PRES   REMARKS
GERALDTON      MOSUNNY   18   7  62 SW14G20   30.02F WCI   4
THUNDER BAY    MOSUNNY   21   9  58 S14       30.05F WCI   8
SIOUX LOOKOUT  CLOUDY    16  -2  45 S12G18    29.83F WCI   3
TORONTO        MOSUNNY   10  -2  56 E5        30.44F WCI   2
BIG TROUT LK   FLURRIES  14   1  57 S12G17    29.71F WCI   0
PICKLE LAKE    PTSUNNY   16  -9  32 SW18G24   29.82F WCI  -1
DRYDEN         CLOUDY    14   3  62 S8        29.81F WCI   3
KENORA         FLURRIES  10   5  79 S14G22    29.77F WCI  -5
$$
                *** MANITOBA***

CITY           SKY/WX    TMP DP  RH WIND       PRES   REMARKS
BRANDON        CLOUDY    21  18  86 W10       29.65F WCI  10
DAUPHIN        PTSUNNY   23  21  93 W23       29.62F WCI   7
ISLAND LAKE    LGT SNOW  10   5  79 S12G18    29.62F VSB 3/4 WCI  -4
PILOT MOUND      N/A     19  14  79 W6          N/A  WCI  11
THE PAS        CLOUDY    23  19  86 SW12      29.52F WCI  12
THOMPSON       FRZ DRZL   9   7  92 S8        29.46F WCI  -4
WINNIPEG       LGT SNOW  16  10  79 S16G22    29.72F DRFTSNOWWCI   0
LYNN LAKE      FLURRIES  18  12  79 NW13G21   29.38S WCI   4
CHURCHILL      LGT SNOW   5   1  85 SW8       29.47F WCI  -8
GILLAM         LGT SNOW   9   3  78 S14       29.50F DRFTSNOWWCI  -8
$$
                ***SASKATCHEWAN***

CITY           SKY/WX    TMP DP  RH WIND       PRES   REMARKS
ESTEVAN        CLOUDY    32  28  86 W10       29.68R WCI  24
KINDERSLEY     PTSUNNY   25  23  93 W7        29.68F WCI  17
LLOYDMINSTER   PTSUNNY   32  27  80 W13       29.65R WCI  22
PRINCE ALBERT  MOSUNNY   30  25  80 W9        29.58F WCI  22
REGINA         PTSUNNY   34  28  80 W6        29.65S
YORKTON        SUNNY     28  25  86 SW9       29.60F WCC1F1C2F2C3F3C4F4C5F5C6F6C7F7C8F8C9F9CaFaCbFbCcFcCdFdCe!


USA.gov is the U.S. government's official web portal to all federal, state and local government web resources and services.